Time,TemperatureF,DewpointF,PressureIn,WindDirection,WindDirectionDegrees,WindSpeedMPH,WindSpeedGustMPH,Humidity,HourlyPrecipIn,Conditions,Clouds,dailyrainin,SolarRadiationWatts/m^2,SoftwareType,DateUTC
2013-02-28 00:02:00,50.2,47.7,30.38,SW,227,0.0,0.0,91,0.01,,,0.01,0.0,meteohub,2013-02-28 08:02:00,
2013-02-28 00:07:00,50.0,47.5,30.38,SW,227,0.0,0.0,91,0.01,,,0.01,0.0,meteohub,2013-02-28 08:07:00,
2013-02-28 00:12:00,49.8,47.3,30.38,SW,227,0.0,0.0,91,0.01,,,0.01,0.0,meteohub,2013-02-28 08:12:00,
2013-02-28 00:17:00,49.6,47.1,30.38,SW,227,0.0,0.0,91,0.01,,,0.01,0.0,meteohub,2013-02-28 08:17:00,
2013-02-28 00:22:00,49.6,47.1,30.38,SW,227,0.0,0.0,91,0.01,,,0.01,0.0,meteohub,2013-02-28 08:22:00,
2013-02-28 00:27:00,49.5,47.3,30.38,SW,227,0.0,0.0,92,0.01,,,0.01,0.0,meteohub,2013-02-28 08:27:00,
2013-02-28 00:32:00,49.3,47.1,30.38,SW,227,0.0,0.0,92,0.01,,,0.01,0.0,meteohub,2013-02-28 08:32:00,
2013-02-28 00:37:00,49.1,46.9,30.38,SW,227,0.0,0.0,92,0.01,,,0.01,0.0,meteohub,2013-02-28 08:37:00,
2013-02-28 00:42:00,49.1,46.9,30.38,SW,227,0.0,0.0,92,0.01,,,0.01,0.0,meteohub,2013-02-28 08:42:00,
2013-02-28 00:47:00,48.9,46.8,30.38,SW,227,0.0,0.0,92,0.00,,,0.01,0.0,meteohub,2013-02-28 08:47:00,
2013-02-28 00:52:00,48.9,46.9,30.38,SW,227,0.0,0.0,93,0.00,,,0.01,0.0,meteohub,2013-02-28 08:52:00,
2013-02-28 00:57:00,48.7,46.8,30.38,SW,227,0.0,0.0,93,0.00,,,0.01,0.0,meteohub,2013-02-28 08:57:00,
2013-02-28 01:02:00,48.7,46.8,30.38,SW,227,0.0,0.0,93,0.00,,,0.01,0.0,meteohub,2013-02-28 09:02:00,
2013-02-28 01:07:00,48.7,46.8,30.39,SW,227,0.0,0.0,93,0.00,,,0.01,0.0,meteohub,2013-02-28 09:07:00,
2013-02-28 01:12:00,48.7,46.8,30.39,SW,227,0.0,0.0,93,0.00,,,0.01,0.0,meteohub,2013-02-28 09:12:00,
2013-02-28 01:17:00,48.7,46.8,30.39,SW,227,0.0,0.0,93,0.00,,,0.01,0.0,meteohub,2013-02-28 09:17:00,
2013-02-28 01:22:00,48.6,46.6,30.39,SW,227,0.0,0.0,93,0.00,,,0.01,0.0,meteohub,2013-02-28 09:22:00,
2013-02-28 01:28:00,48.6,46.6,30.39,SW,227,0.0,0.0,93,0.00,,,0.01,0.0,meteohub,2013-02-28 09:28:00,
2013-02-28 01:34:00,48.6,46.9,30.39,SW,227,0.0,0.0,94,0.00,,,0.01,0.0,meteohub,2013-02-28 09:34:00,
2013-02-28 01:40:00,48.6,46.9,30.39,SW,227,0.0,0.0,94,0.00,,,0.01,0.0,meteohub,2013-02-28 09:40:00,
2013-02-28 01:47:00,48.6,46.9,30.39,SW,227,0.0,0.0,94,0.00,,,0.01,0.0,meteohub,2013-02-28 09:47:00,
2013-02-28 01:52:00,48.7,47.1,30.39,SW,227,0.0,0.0,94,0.00,,,0.01,0.0,meteohub,2013-02-28 09:52:00,
2013-02-28 01:57:00,48.6,46.9,30.39,SW,227,0.0,0.0,94,0.00,,,0.01,0.0,meteohub,2013-02-28 09:57:00,
2013-02-28 02:02:00,48.6,46.9,30.39,SW,227,0.0,0.0,94,0.00,,,0.01,0.0,meteohub,2013-02-28 10:02:00,
2013-02-28 02:07:00,48.6,46.9,30.39,SW,227,0.0,0.0,94,0.00,,,0.01,0.0,meteohub,2013-02-28 10:07:00,
2013-02-28 02:13:00,48.6,46.9,30.39,SW,227,0.0,0.0,94,0.00,,,0.01,0.0,meteohub,2013-02-28 10:13:00,
2013-02-28 02:20:00,48.6,46.9,30.39,SW,227,0.0,0.0,94,0.00,,,0.01,0.0,meteohub,2013-02-28 10:20:00,
2013-02-28 02:26:00,48.6,46.9,30.39,SW,227,0.0,0.0,94,0.00,,,0.01,0.0,meteohub,2013-02-28 10:26:00,
2013-02-28 02:32:00,48.6,46.9,30.39,SW,227,0.0,0.0,94,0.00,,,0.01,0.0,meteohub,2013-02-28 10:32:00,
2013-02-28 02:37:00,48.4,46.8,30.39,SW,227,0.0,0.0,94,0.00,,,0.01,0.0,meteohub,2013-02-28 10:37:00,
2013-02-28 02:42:00,48.4,46.8,30.39,SW,227,0.0,0.0,94,0.00,,,0.01,0.0,meteohub,2013-02-28 10:42:00,
2013-02-28 02:48:00,48.2,46.6,30.39,SW,227,0.0,0.0,94,0.00,,,0.01,0.0,meteohub,2013-02-28 10:48:00,
2013-02-28 02:54:00,48.0,46.4,30.39,SW,227,0.0,0.0,94,0.00,,,0.01,0.0,meteohub,2013-02-28 10:54:00,
2013-02-28 03:01:00,48.0,46.4,30.39,SW,227,0.0,0.0,94,0.00,,,0.01,0.0,meteohub,2013-02-28 11:01:00,
2013-02-28 03:07:00,47.8,46.2,30.39,SW,227,0.0,0.0,94,0.00,,,0.01,0.0,meteohub,2013-02-28 11:07:00,
2013-02-28 03:12:00,47.8,46.2,30.38,SW,227,0.0,0.0,94,0.00,,,0.01,0.0,meteohub,2013-02-28 11:12:00,
2013-02-28 03:17:00,47.7,46.0,30.39,SW,227,0.0,0.0,94,0.00,,,0.01,0.0,meteohub,2013-02-28 11:17:00,
2013-02-28 03:23:00,47.5,45.9,30.39,SW,227,0.0,0.0,94,0.00,,,0.01,0.0,meteohub,2013-02-28 11:23:00,
2013-02-28 03:29:00,47.5,45.9,30.39,SW,227,0.0,0.0,94,0.00,,,0.01,0.0,meteohub,2013-02-28 11:29:00,
2013-02-28 03:36:00,47.1,45.5,30.39,SW,227,0.0,0.0,94,0.00,,,0.01,0.0,meteohub,2013-02-28 11:36:00,
2013-02-28 03:42:00,47.1,45.5,30.39,SW,227,0.0,0.0,94,0.00,,,0.01,0.0,meteohub,2013-02-28 11:42:00,
2013-02-28 03:47:00,46.9,45.5,30.39,SW,227,0.0,0.0,95,0.00,,,0.01,0.0,meteohub,2013-02-28 11:47:00,
2013-02-28 03:52:00,46.8,45.3,30.39,SW,227,0.0,0.0,95,0.00,,,0.01,0.0,meteohub,2013-02-28 11:52:00,
2013-02-28 03:57:00,46.8,45.3,30.39,SW,227,0.0,0.0,95,0.00,,,0.01,0.0,meteohub,2013-02-28 11:57:00,
2013-02-28 04:02:00,46.6,45.1,30.39,SW,227,0.0,0.0,95,0.00,,,0.01,0.0,meteohub,2013-02-28 12:02:00,
2013-02-28 04:07:00,46.6,45.1,30.39,SW,227,0.0,0.0,95,0.00,,,0.01,0.0,meteohub,2013-02-28 12:07:00,
2013-02-28 04:12:00,46.2,44.8,30.39,SW,227,0.0,0.0,95,0.00,,,0.01,0.0,meteohub,2013-02-28 12:12:00,
2013-02-28 04:17:00,46.2,44.8,30.39,SW,227,0.0,0.0,95,0.00,,,0.01,0.0,meteohub,2013-02-28 12:17:00,
2013-02-28 04:23:00,46.0,44.6,30.39,SW,227,0.0,0.0,95,0.00,,,0.01,0.0,meteohub,2013-02-28 12:23:00,
2013-02-28 04:29:00,45.9,44.4,30.39,SW,227,0.0,0.0,95,0.00,,,0.01,0.0,meteohub,2013-02-28 12:29:00,
2013-02-28 04:35:00,45.9,44.4,30.39,SW,227,0.0,0.0,95,0.00,,,0.01,0.0,meteohub,2013-02-28 12:35:00,
2013-02-28 04:41:00,45.7,44.4,30.40,SW,227,0.0,0.0,95,0.00,,,0.01,0.0,meteohub,2013-02-28 12:41:00,
2013-02-28 04:47:00,45.7,44.4,30.40,SW,227,0.0,0.0,95,0.00,,,0.01,0.0,meteohub,2013-02-28 12:47:00,
2013-02-28 04:52:00,45.5,44.2,30.40,SW,227,0.0,0.0,95,0.00,,,0.01,0.0,meteohub,2013-02-28 12:52:00,
2013-02-28 04:57:00,45.3,44.1,30.40,SW,227,0.0,0.0,95,0.00,,,0.01,0.0,meteohub,2013-02-28 12:57:00,
2013-02-28 05:02:00,45.3,44.1,30.40,SW,227,0.0,0.0,95,0.00,,,0.01,0.0,meteohub,2013-02-28 13:02:00,
2013-02-28 05:07:00,45.1,43.9,30.41,SW,227,0.0,0.0,95,0.00,,,0.01,0.0,meteohub,2013-02-28 13:07:00,
2013-02-28 05:12:00,45.1,43.9,30.41,SW,227,0.0,0.0,95,0.00,,,0.01,0.0,meteohub,2013-02-28 13:12:00,
2013-02-28 05:17:00,45.1,43.9,30.42,SW,227,0.0,0.0,95,0.00,,,0.01,0.0,meteohub,2013-02-28 13:17:00,
2013-02-28 05:22:00,45.0,43.7,30.42,SW,227,0.0,0.0,95,0.00,,,0.01,0.0,meteohub,2013-02-28 13:22:00,
2013-02-28 05:27:00,45.0,43.7,30.41,SW,227,0.0,0.0,95,0.00,,,0.01,0.0,meteohub,2013-02-28 13:27:00,
2013-02-28 05:32:00,44.8,43.5,30.42,SW,227,0.0,0.0,95,0.00,,,0.01,0.0,meteohub,2013-02-28 13:32:00,
2013-02-28 05:37:00,44.8,43.5,30.42,SW,227,0.0,0.0,95,0.00,,,0.01,0.0,meteohub,2013-02-28 13:37:00,
2013-02-28 05:42:00,44.6,43.3,30.42,SW,227,0.0,0.0,95,0.00,,,0.01,0.0,meteohub,2013-02-28 13:42:00,
2013-02-28 05:47:00,44.4,43.2,30.42,SW,227,0.0,0.0,95,0.00,,,0.01,0.0,meteohub,2013-02-28 13:47:00,
2013-02-28 05:53:00,44.4,43.2,30.42,SW,227,0.0,0.0,95,0.00,,,0.01,0.0,meteohub,2013-02-28 13:53:00,
2013-02-28 06:00:00,44.4,43.2,30.42,SW,227,0.0,0.0,95,0.00,,,0.01,0.0,meteohub,2013-02-28 14:00:00,
2013-02-28 06:06:00,44.2,43.2,30.42,SW,227,0.0,0.0,96,0.00,,,0.01,0.0,meteohub,2013-02-28 14:06:00,
2013-02-28 06:12:00,44.2,43.2,30.42,SW,227,0.0,0.0,96,0.00,,,0.01,0.0,meteohub,2013-02-28 14:12:00,
2013-02-28 06:17:00,44.2,43.2,30.42,SW,227,0.0,0.0,96,0.00,,,0.01,0.0,meteohub,2013-02-28 14:17:00,
2013-02-28 06:22:00,44.2,43.2,30.42,SW,227,0.0,0.0,96,0.00,,,0.01,0.0,meteohub,2013-02-28 14:22:00,
2013-02-28 06:27:00,44.2,43.2,30.42,SW,220,0.0,0.0,96,0.00,,,0.01,0.0,meteohub,2013-02-28 14:27:00,
2013-02-28 06:32:00,44.2,43.2,30.43,SW,221,0.0,0.0,96,0.00,,,0.01,0.0,meteohub,2013-02-28 14:32:00,
2013-02-28 06:37:00,44.4,43.3,30.43,SW,220,0.0,0.0,96,0.00,,,0.01,0.0,meteohub,2013-02-28 14:37:00,
2013-02-28 06:42:00,44.4,43.3,30.43,SW,220,0.0,0.0,96,0.00,,,0.01,0.0,meteohub,2013-02-28 14:42:00,
2013-02-28 06:47:00,44.4,43.3,30.43,SW,221,0.0,0.0,96,0.00,,,0.01,0.0,meteohub,2013-02-28 14:47:00,
2013-02-28 06:52:00,44.4,43.3,30.43,SW,220,0.0,0.0,96,0.00,,,0.01,5.0,meteohub,2013-02-28 14:52:00,
2013-02-28 06:57:00,44.2,43.2,30.43,SW,220,0.0,0.0,96,0.00,,,0.01,5.0,meteohub,2013-02-28 14:57:00,
2013-02-28 07:02:00,44.4,43.3,30.43,SW,220,0.0,0.0,96,0.00,,,0.01,9.0,meteohub,2013-02-28 15:02:00,
2013-02-28 07:07:00,44.4,43.3,30.43,SW,220,0.0,0.0,96,0.00,,,0.01,11.0,meteohub,2013-02-28 15:07:00,
2013-02-28 07:12:00,44.4,43.3,30.43,SW,220,0.0,0.0,96,0.00,,,0.01,14.0,meteohub,2013-02-28 15:12:00,
2013-02-28 07:18:00,44.8,43.7,30.43,SW,220,0.0,0.0,96,0.00,,,0.01,18.0,meteohub,2013-02-28 15:18:00,
2013-02-28 07:24:00,44.4,43.3,30.43,SW,220,0.0,0.0,96,0.00,,,0.01,21.0,meteohub,2013-02-28 15:24:00,
2013-02-28 07:31:00,44.4,43.3,30.43,SW,221,0.0,0.0,96,0.00,,,0.01,21.0,meteohub,2013-02-28 15:31:00,
2013-02-28 07:37:00,44.4,43.3,30.43,SW,220,0.0,0.0,96,0.00,,,0.01,25.0,meteohub,2013-02-28 15:37:00,
2013-02-28 07:42:00,44.2,43.2,30.43,SW,220,0.0,0.0,96,0.00,,,0.01,28.0,meteohub,2013-02-28 15:42:00,
2013-02-28 07:47:00,44.4,43.3,30.43,SW,220,0.0,0.0,96,0.00,,,0.01,33.0,meteohub,2013-02-28 15:47:00,
2013-02-28 07:52:00,44.4,43.3,30.44,SW,220,0.0,0.0,96,0.00,,,0.01,33.0,meteohub,2013-02-28 15:52:00,
2013-02-28 07:57:00,44.6,43.5,30.44,SW,220,0.0,0.0,96,0.00,,,0.01,42.0,meteohub,2013-02-28 15:57:00,
2013-02-28 08:02:00,45.0,43.9,30.45,SW,220,0.0,0.0,96,0.00,,,0.01,60.0,meteohub,2013-02-28 16:02:00,
2013-02-28 08:07:00,45.1,44.4,30.45,SW,220,0.0,0.0,97,0.00,,,0.01,60.0,meteohub,2013-02-28 16:07:00,
2013-02-28 08:12:00,45.5,44.8,30.45,SW,220,0.0,0.0,97,0.00,,,0.01,69.0,meteohub,2013-02-28 16:12:00,
2013-02-28 08:18:00,45.7,44.6,30.45,SW,220,0.0,0.0,96,0.00,,,0.01,134.0,meteohub,2013-02-28 16:18:00,
2013-02-28 08:24:00,46.2,45.5,30.45,SW,220,0.0,0.0,97,0.00,,,0.01,132.0,meteohub,2013-02-28 16:24:00,
2013-02-28 08:30:00,47.1,46.4,30.45,SSW,213,0.0,0.0,97,0.00,,,0.01,167.0,meteohub,2013-02-28 16:30:00,
2013-02-28 08:36:00,47.8,46.9,30.45,SSW,213,0.0,0.0,97,0.00,,,0.01,190.0,meteohub,2013-02-28 16:36:00,
2013-02-28 08:42:00,48.4,47.5,30.45,SSW,213,0.0,0.0,97,0.00,,,0.01,135.0,meteohub,2013-02-28 16:42:00,
2013-02-28 08:47:00,48.9,48.0,30.45,SSW,213,0.0,0.0,97,0.00,,,0.01,118.0,meteohub,2013-02-28 16:47:00,
2013-02-28 08:52:00,49.5,48.6,30.46,SSW,213,0.0,0.0,97,0.00,,,0.01,241.0,meteohub,2013-02-28 16:52:00,
2013-02-28 08:57:00,50.2,49.1,30.45,SSW,213,0.0,0.0,96,0.00,,,0.01,294.0,meteohub,2013-02-28 16:57:00,
2013-02-28 09:02:00,50.7,49.3,30.45,SSW,213,0.0,0.0,95,0.00,,,0.01,364.0,meteohub,2013-02-28 17:02:00,
2013-02-28 09:07:00,51.6,50.0,30.45,SSW,209,0.0,0.0,94,0.00,,,0.01,380.0,meteohub,2013-02-28 17:07:00,
2013-02-28 09:13:00,53.1,50.7,30.45,SSW,209,0.0,0.0,92,0.00,,,0.01,401.0,meteohub,2013-02-28 17:13:00,
2013-02-28 09:19:00,54.1,51.6,30.45,SSW,209,0.0,0.0,91,0.00,,,0.01,424.0,meteohub,2013-02-28 17:19:00,
2013-02-28 09:26:00,55.2,51.4,30.45,SSW,209,0.0,0.0,87,0.00,,,0.01,446.0,meteohub,2013-02-28 17:26:00,
2013-02-28 09:32:00,56.1,52.3,30.45,SSW,209,0.0,0.0,87,0.00,,,0.01,468.0,meteohub,2013-02-28 17:32:00,
2013-02-28 09:37:00,56.8,52.7,30.45,SSW,209,0.0,0.0,86,0.00,,,0.01,483.0,meteohub,2013-02-28 17:37:00,
2013-02-28 09:42:00,57.6,52.7,30.44,SSW,209,0.0,0.0,84,0.00,,,0.01,496.0,meteohub,2013-02-28 17:42:00,
2013-02-28 09:47:00,58.3,52.5,30.44,SSW,209,0.0,0.0,81,0.00,,,0.01,510.0,meteohub,2013-02-28 17:47:00,
2013-02-28 09:52:00,59.2,53.1,30.44,SSW,205,0.0,0.0,80,0.00,,,0.01,524.0,meteohub,2013-02-28 17:52:00,
2013-02-28 09:57:00,59.7,54.0,30.44,SSW,205,0.0,0.0,81,0.00,,,0.01,536.0,meteohub,2013-02-28 17:57:00,
2013-02-28 10:02:00,60.6,53.4,30.45,SSW,205,0.0,0.0,77,0.00,,,0.01,550.0,meteohub,2013-02-28 18:02:00,
2013-02-28 10:07:00,61.3,52.7,30.45,SSW,205,0.0,0.0,73,0.00,,,0.01,563.0,meteohub,2013-02-28 18:07:00,
2013-02-28 10:12:00,61.9,53.8,30.45,SSW,205,0.0,0.0,75,0.00,,,0.01,577.0,meteohub,2013-02-28 18:12:00,
2013-02-28 10:17:00,62.1,54.0,30.45,SSW,205,0.0,0.0,75,0.00,,,0.01,587.0,meteohub,2013-02-28 18:17:00,
2013-02-28 10:22:00,62.4,54.0,30.44,SSW,205,0.0,0.0,74,0.00,,,0.01,599.0,meteohub,2013-02-28 18:22:00,
2013-02-28 10:27:00,63.1,54.0,30.45,SSW,205,0.0,0.0,72,0.00,,,0.01,610.0,meteohub,2013-02-28 18:27:00,
2013-02-28 10:32:00,63.7,53.8,30.44,SSW,205,0.0,0.0,70,0.00,,,0.01,613.0,meteohub,2013-02-28 18:32:00,
2013-02-28 10:37:00,64.0,53.2,30.44,SW,221,0.0,0.0,68,0.00,,,0.01,631.0,meteohub,2013-02-28 18:37:00,
2013-02-28 10:42:00,64.0,52.9,30.44,SW,236,0.0,0.0,67,0.00,,,0.01,643.0,meteohub,2013-02-28 18:42:00,
2013-02-28 10:47:00,64.2,53.1,30.43,SSW,210,0.0,0.0,67,0.00,,,0.01,643.0,meteohub,2013-02-28 18:47:00,
2013-02-28 10:52:00,64.4,52.9,30.44,SW,215,0.0,0.0,66,0.00,,,0.01,650.0,meteohub,2013-02-28 18:52:00,
2013-02-28 10:57:00,63.9,52.3,30.44,SW,236,8.0,0.0,66,0.00,,,0.01,657.0,meteohub,2013-02-28 18:57:00,
2013-02-28 11:02:00,63.7,52.2,30.44,SW,215,5.0,0.0,66,0.00,,,0.01,668.0,meteohub,2013-02-28 19:02:00,
2013-02-28 11:08:00,64.2,52.2,30.44,SSW,212,6.0,9.0,65,0.00,,,0.01,666.0,meteohub,2013-02-28 19:08:00,
2013-02-28 11:15:00,63.3,51.8,30.44,WSW,241,7.0,12.0,66,0.00,,,0.01,682.0,meteohub,2013-02-28 19:15:00,
2013-02-28 11:21:00,63.7,52.5,30.44,WSW,240,6.0,12.0,67,0.00,,,0.01,684.0,meteohub,2013-02-28 19:21:00,
2013-02-28 11:27:00,64.8,53.6,30.44,SW,226,6.0,12.0,67,0.00,,,0.01,703.0,meteohub,2013-02-28 19:27:00,
2013-02-28 11:32:00,64.9,52.9,30.43,WSW,248,6.0,12.0,65,0.00,,,0.01,707.0,meteohub,2013-02-28 19:32:00,
2013-02-28 11:37:00,64.8,53.1,30.43,SW,227,7.0,10.0,66,0.00,,,0.01,721.0,meteohub,2013-02-28 19:37:00,
2013-02-28 11:42:00,64.8,52.7,30.43,WSW,237,5.0,10.0,65,0.00,,,0.01,729.0,meteohub,2013-02-28 19:42:00,
2013-02-28 11:47:00,64.8,52.7,30.43,WSW,238,4.0,10.0,65,0.00,,,0.01,701.0,meteohub,2013-02-28 19:47:00,
2013-02-28 11:52:00,65.5,53.4,30.43,WSW,240,4.0,10.0,65,0.00,,,0.01,686.0,meteohub,2013-02-28 19:52:00,
2013-02-28 11:57:00,66.4,53.4,30.42,SW,216,1.0,10.0,63,0.00,,,0.01,622.0,meteohub,2013-02-28 19:57:00,
2013-02-28 12:02:00,66.6,53.1,30.42,SW,232,5.0,10.0,62,0.00,,,0.01,714.0,meteohub,2013-02-28 20:02:00,
2013-02-28 12:07:00,66.4,52.9,30.42,SW,233,0.0,8.0,62,0.00,,,0.01,686.0,meteohub,2013-02-28 20:07:00,
2013-02-28 12:12:00,67.3,54.3,30.42,SSE,150,4.0,8.0,63,0.00,,,0.01,670.0,meteohub,2013-02-28 20:12:00,
2013-02-28 12:18:00,68.0,54.5,30.42,SSE,150,0.0,7.0,62,0.00,,,0.01,654.0,meteohub,2013-02-28 20:18:00,
2013-02-28 12:24:00,68.5,54.1,30.41,South,175,1.0,7.0,60,0.00,,,0.01,633.0,meteohub,2013-02-28 20:24:00,
2013-02-28 12:31:00,68.4,53.4,30.41,WSW,244,1.0,5.0,59,0.00,,,0.01,707.0,meteohub,2013-02-28 20:31:00,
2013-02-28 12:37:00,68.0,53.6,30.41,SW,229,6.0,6.0,60,0.00,,,0.01,707.0,meteohub,2013-02-28 20:37:00,
2013-02-28 12:42:00,67.3,53.8,30.41,WSW,244,6.0,6.0,62,0.00,,,0.01,742.0,meteohub,2013-02-28 20:42:00,
2013-02-28 12:47:00,66.9,53.4,30.41,WSW,249,5.0,12.0,62,0.00,,,0.01,745.0,meteohub,2013-02-28 20:47:00,
2013-02-28 12:52:00,66.9,54.0,30.40,SW,225,7.0,12.0,63,0.00,,,0.01,738.0,meteohub,2013-02-28 20:52:00,
2013-02-28 12:57:00,67.5,54.0,30.40,SW,230,7.0,13.0,62,0.00,,,0.01,728.0,meteohub,2013-02-28 20:57:00,
2013-02-28 13:02:00,67.5,54.0,30.40,SW,231,6.0,13.0,62,0.00,,,0.01,729.0,meteohub,2013-02-28 21:02:00,
2013-02-28 13:07:00,67.3,53.8,30.40,SW,235,7.0,13.0,62,0.00,,,0.01,679.0,meteohub,2013-02-28 21:07:00,
2013-02-28 13:12:00,66.7,53.8,30.40,SW,224,9.0,13.0,63,0.00,,,0.01,698.0,meteohub,2013-02-28 21:12:00,
2013-02-28 13:17:00,66.4,53.4,30.40,SW,233,10.0,12.0,63,0.00,,,0.01,731.0,meteohub,2013-02-28 21:17:00,
2013-02-28 13:22:00,65.8,53.2,30.40,WSW,248,8.0,12.0,64,0.00,,,0.01,724.0,meteohub,2013-02-28 21:22:00,
2013-02-28 13:27:00,65.8,53.2,30.40,SW,223,8.0,13.0,64,0.00,,,0.01,714.0,meteohub,2013-02-28 21:27:00,
2013-02-28 13:32:00,65.7,53.2,30.40,WSW,239,5.0,13.0,64,0.00,,,0.01,680.0,meteohub,2013-02-28 21:32:00,
2013-02-28 13:37:00,65.8,52.9,30.40,West,267,4.0,11.0,63,0.00,,,0.01,686.0,meteohub,2013-02-28 21:37:00,
2013-02-28 13:42:00,65.8,53.2,30.39,SSE,167,4.0,11.0,64,0.00,,,0.01,684.0,meteohub,2013-02-28 21:42:00,
2013-02-28 13:47:00,66.4,53.4,30.39,SSW,200,2.0,11.0,63,0.00,,,0.01,694.0,meteohub,2013-02-28 21:47:00,
2013-02-28 13:52:00,66.4,53.4,30.39,South,188,8.0,11.0,63,0.00,,,0.01,624.0,meteohub,2013-02-28 21:52:00,
2013-02-28 13:57:00,66.6,53.6,30.40,SW,225,5.0,10.0,63,0.00,,,0.01,598.0,meteohub,2013-02-28 21:57:00,
2013-02-28 14:02:00,66.6,53.6,30.39,WSW,251,4.0,10.0,63,0.00,,,0.01,724.0,meteohub,2013-02-28 22:02:00,
2013-02-28 14:07:00,66.7,53.8,30.39,SSW,211,4.0,11.0,63,0.00,,,0.01,714.0,meteohub,2013-02-28 22:07:00,
2013-02-28 14:12:00,66.7,53.8,30.39,SSW,205,2.0,11.0,63,0.00,,,0.01,559.0,meteohub,2013-02-28 22:12:00,
2013-02-28 14:17:00,66.2,53.6,30.39,SW,229,6.0,10.0,64,0.00,,,0.01,461.0,meteohub,2013-02-28 22:17:00,
2013-02-28 14:22:00,66.4,53.8,30.39,South,188,0.0,10.0,64,0.00,,,0.01,445.0,meteohub,2013-02-28 22:22:00,
2013-02-28 14:27:00,66.6,54.0,30.39,SSW,192,1.0,10.0,64,0.00,,,0.01,487.0,meteohub,2013-02-28 22:27:00,
2013-02-28 14:32:00,66.4,53.8,30.39,South,175,4.0,10.0,64,0.00,,,0.01,561.0,meteohub,2013-02-28 22:32:00,
2013-02-28 14:37:00,66.2,54.1,30.39,WSW,240,4.0,9.0,65,0.00,,,0.01,552.0,meteohub,2013-02-28 22:37:00,
2013-02-28 14:42:00,66.0,53.4,30.39,WSW,243,4.0,9.0,64,0.00,,,0.01,383.0,meteohub,2013-02-28 22:42:00,
2013-02-28 14:47:00,66.2,54.1,30.40,WSW,242,4.0,10.0,65,0.00,,,0.01,666.0,meteohub,2013-02-28 22:47:00,
2013-02-28 14:52:00,66.4,54.3,30.39,WSW,246,7.0,10.0,65,0.00,,,0.01,613.0,meteohub,2013-02-28 22:52:00,
2013-02-28 14:57:00,67.5,54.9,30.39,South,191,3.0,10.0,64,0.00,,,0.01,578.0,meteohub,2013-02-28 22:57:00,
2013-02-28 15:02:00,67.3,54.3,30.39,SW,229,8.0,10.0,63,0.00,,,0.01,519.0,meteohub,2013-02-28 23:02:00,
2013-02-28 15:07:00,67.5,54.5,30.39,SW,234,1.0,10.0,63,0.00,,,0.01,504.0,meteohub,2013-02-28 23:07:00,
2013-02-28 15:13:00,67.6,54.7,30.38,SW,228,5.0,10.0,63,0.00,,,0.01,492.0,meteohub,2013-02-28 23:13:00,
2013-02-28 15:19:00,67.8,54.7,30.38,SW,229,5.0,10.0,63,0.00,,,0.01,468.0,meteohub,2013-02-28 23:19:00,
2013-02-28 15:25:00,67.8,54.7,30.38,WSW,244,1.0,8.0,63,0.00,,,0.01,454.0,meteohub,2013-02-28 23:25:00,
2013-02-28 15:31:00,68.2,55.6,30.38,SSW,192,2.0,8.0,64,0.00,,,0.01,439.0,meteohub,2013-02-28 23:31:00,
2013-02-28 15:37:00,68.0,54.9,30.38,SW,232,1.0,7.0,63,0.00,,,0.01,427.0,meteohub,2013-02-28 23:37:00,
2013-02-28 15:42:00,68.2,55.6,30.38,SW,214,4.0,7.0,64,0.00,,,0.01,410.0,meteohub,2013-02-28 23:42:00,
2013-02-28 15:47:00,68.2,55.6,30.38,SW,234,1.0,6.0,64,0.00,,,0.01,392.0,meteohub,2013-02-28 23:47:00,
2013-02-28 15:52:00,67.6,55.4,30.38,SW,236,5.0,6.0,65,0.00,,,0.01,359.0,meteohub,2013-02-28 23:52:00,
2013-02-28 15:58:00,67.1,54.5,30.38,WSW,252,2.0,7.0,64,0.00,,,0.01,359.0,meteohub,2013-02-28 23:58:00,
2013-02-28 16:04:00,66.7,54.7,30.38,SW,228,5.0,7.0,65,0.00,,,0.01,338.0,meteohub,2013-03-01 00:04:00,
2013-02-28 16:11:00,66.7,54.7,30.38,WSW,240,4.0,7.0,65,0.00,,,0.00,318.0,meteohub,2013-03-01 00:11:00,
2013-02-28 16:17:00,66.4,54.7,30.38,SW,236,4.0,9.0,66,0.00,,,0.00,54.0,meteohub,2013-03-01 00:17:00,
2013-02-28 16:22:00,65.7,54.3,30.38,SW,219,0.0,9.0,67,0.00,,,0.00,51.0,meteohub,2013-03-01 00:22:00,
2013-02-28 16:27:00,65.3,54.5,30.38,WSW,245,2.0,9.0,68,0.00,,,0.00,37.0,meteohub,2013-03-01 00:27:00,
2013-02-28 16:32:00,64.6,54.5,30.38,WSW,255,2.0,9.0,70,0.00,,,0.00,32.0,meteohub,2013-03-01 00:32:00,
2013-02-28 16:37:00,64.0,54.9,30.38,WSW,247,0.0,7.0,72,0.00,,,0.00,30.0,meteohub,2013-03-01 00:37:00,
2013-02-28 16:42:00,63.7,54.5,30.38,WSW,254,2.0,7.0,72,0.00,,,0.00,28.0,meteohub,2013-03-01 00:42:00,
2013-02-28 16:47:00,63.7,54.5,30.37,WSW,255,0.0,6.0,72,0.00,,,0.00,28.0,meteohub,2013-03-01 00:47:00,
2013-02-28 16:52:00,63.5,54.7,30.38,WSW,257,3.0,6.0,73,0.00,,,0.00,26.0,meteohub,2013-03-01 00:52:00,
2013-02-28 16:58:00,63.1,54.3,30.38,SW,234,2.0,4.0,73,0.00,,,0.00,25.0,meteohub,2013-03-01 00:58:00,
2013-02-28 17:04:00,62.6,54.1,30.38,SW,234,0.0,4.0,74,0.00,,,0.00,25.0,meteohub,2013-03-01 01:04:00,
2013-02-28 17:10:00,62.2,54.1,30.38,SW,234,0.0,4.0,75,0.00,,,0.00,23.0,meteohub,2013-03-01 01:10:00,
2013-02-28 17:16:00,62.1,54.0,30.38,SW,234,1.0,3.0,75,0.00,,,0.00,21.0,meteohub,2013-03-01 01:16:00,
2013-02-28 17:22:00,61.5,54.0,30.38,SW,234,1.0,4.0,76,0.00,,,0.00,19.0,meteohub,2013-03-01 01:22:00,
2013-02-28 17:27:00,61.2,54.0,30.38,SW,234,0.0,4.0,77,0.00,,,0.00,18.0,meteohub,2013-03-01 01:27:00,
2013-02-28 17:33:00,60.6,53.8,30.38,SW,234,0.0,4.0,78,0.00,,,0.00,16.0,meteohub,2013-03-01 01:33:00,
2013-02-28 17:39:00,60.4,54.0,30.38,West,273,1.0,4.0,79,0.00,,,0.00,12.0,meteohub,2013-03-01 01:39:00,
2013-02-28 17:46:00,59.9,53.4,30.39,West,273,0.0,5.0,79,0.00,,,0.00,11.0,meteohub,2013-03-01 01:46:00,
2013-02-28 17:52:00,59.5,53.4,30.39,West,273,0.0,5.0,80,0.00,,,0.00,7.0,meteohub,2013-03-01 01:52:00,
2013-02-28 17:57:00,59.4,53.2,30.39,West,273,0.0,2.0,80,0.00,,,0.00,5.0,meteohub,2013-03-01 01:57:00,
2013-02-28 18:02:00,59.2,53.4,30.39,West,273,0.0,2.0,81,0.00,,,0.00,0.0,meteohub,2013-03-01 02:02:00,
2013-02-28 18:07:00,58.6,52.9,30.39,West,273,0.0,1.0,81,0.00,,,0.00,0.0,meteohub,2013-03-01 02:07:00,
2013-02-28 18:12:00,58.6,53.2,30.39,West,273,1.0,1.0,82,0.00,,,0.00,0.0,meteohub,2013-03-01 02:12:00,
2013-02-28 18:17:00,58.5,53.1,30.40,West,273,0.0,2.0,82,0.00,,,0.00,0.0,meteohub,2013-03-01 02:17:00,
2013-02-28 18:22:00,58.1,52.9,30.40,West,273,0.0,2.0,83,0.00,,,0.00,0.0,meteohub,2013-03-01 02:22:00,
2013-02-28 18:27:00,57.9,52.7,30.40,West,273,0.0,2.0,83,0.00,,,0.00,0.0,meteohub,2013-03-01 02:27:00,
2013-02-28 18:32:00,57.6,52.5,30.40,West,273,0.0,1.0,83,0.00,,,0.00,0.0,meteohub,2013-03-01 02:32:00,
2013-02-28 18:37:00,57.4,52.3,30.40,West,273,0.0,1.0,83,0.00,,,0.00,0.0,meteohub,2013-03-01 02:37:00,
2013-02-28 18:42:00,57.0,52.2,30.40,West,273,0.0,1.0,84,0.00,,,0.00,0.0,meteohub,2013-03-01 02:42:00,
2013-02-28 18:47:00,56.7,51.8,30.40,West,273,0.0,1.0,84,0.00,,,0.00,0.0,meteohub,2013-03-01 02:47:00,
2013-02-28 18:52:00,56.3,51.8,30.40,West,273,0.0,0.0,85,0.00,,,0.00,0.0,meteohub,2013-03-01 02:52:00,
2013-02-28 18:57:00,56.1,51.6,30.40,West,273,0.0,0.0,85,0.00,,,0.00,0.0,meteohub,2013-03-01 02:57:00,
2013-02-28 19:02:00,55.9,51.4,30.41,West,273,0.0,1.0,85,0.00,,,0.00,0.0,meteohub,2013-03-01 03:02:00,
2013-02-28 19:07:00,55.8,51.6,30.41,West,273,0.0,1.0,86,0.00,,,0.00,0.0,meteohub,2013-03-01 03:07:00,
2013-02-28 19:13:00,55.4,51.3,30.41,West,273,0.0,0.0,86,0.00,,,0.00,0.0,meteohub,2013-03-01 03:13:00,
2013-02-28 19:20:00,55.0,51.3,30.42,West,273,0.0,0.0,87,0.00,,,0.00,0.0,meteohub,2013-03-01 03:20:00,
2013-02-28 19:26:00,54.9,51.1,30.42,West,273,0.0,0.0,87,0.00,,,0.00,0.0,meteohub,2013-03-01 03:26:00,
2013-02-28 19:32:00,54.5,50.7,30.42,West,273,0.0,0.0,87,0.00,,,0.00,0.0,meteohub,2013-03-01 03:32:00,
2013-02-28 19:37:00,54.1,50.7,30.42,West,273,0.0,0.0,88,0.00,,,0.00,0.0,meteohub,2013-03-01 03:37:00,
2013-02-28 19:42:00,54.0,50.5,30.42,West,273,0.0,0.0,88,0.00,,,0.00,0.0,meteohub,2013-03-01 03:42:00,
2013-02-28 19:47:00,53.6,50.2,30.42,West,273,0.0,0.0,88,0.00,,,0.00,0.0,meteohub,2013-03-01 03:47:00,
2013-02-28 19:52:00,53.2,50.0,30.42,West,273,0.0,0.0,89,0.00,,,0.00,0.0,meteohub,2013-03-01 03:52:00,
2013-02-28 19:58:00,53.2,50.9,30.42,West,273,0.0,0.0,92,0.00,,,0.00,0.0,meteohub,2013-03-01 03:58:00,
2013-02-28 20:05:00,52.9,50.0,30.42,West,273,0.0,0.0,90,0.00,,,0.00,0.0,meteohub,2013-03-01 04:05:00,
2013-02-28 20:11:00,52.5,49.6,30.42,West,273,0.0,0.0,90,0.00,,,0.00,0.0,meteohub,2013-03-01 04:11:00,
2013-02-28 20:17:00,52.3,49.5,30.42,West,273,0.0,0.0,90,0.00,,,0.00,0.0,meteohub,2013-03-01 04:17:00,
2013-02-28 20:22:00,52.3,49.8,30.43,West,273,0.0,0.0,91,0.00,,,0.00,0.0,meteohub,2013-03-01 04:22:00,
2013-02-28 20:27:00,52.3,49.8,30.43,West,273,0.0,0.0,91,0.00,,,0.00,0.0,meteohub,2013-03-01 04:27:00,
2013-02-28 20:32:00,52.2,49.6,30.43,West,273,0.0,0.0,91,0.00,,,0.00,0.0,meteohub,2013-03-01 04:32:00,
2013-02-28 20:37:00,52.0,49.5,30.43,West,273,0.0,0.0,91,0.00,,,0.00,0.0,meteohub,2013-03-01 04:37:00,
2013-02-28 20:42:00,51.8,49.3,30.43,West,273,0.0,0.0,91,0.00,,,0.00,0.0,meteohub,2013-03-01 04:42:00,
2013-02-28 20:47:00,51.8,49.3,30.43,West,273,0.0,0.0,91,0.00,,,0.00,0.0,meteohub,2013-03-01 04:47:00,
2013-02-28 20:52:00,51.6,49.1,30.43,West,273,0.0,0.0,91,0.00,,,0.00,0.0,meteohub,2013-03-01 04:52:00,
2013-02-28 20:58:00,51.4,48.9,30.44,West,273,0.0,0.0,91,0.00,,,0.00,0.0,meteohub,2013-03-01 04:58:00,
2013-02-28 21:00:00,51.3,48.7,30.43,West,273,0.0,0.0,91,0.00,,,0.00,0.0,meteohub,2013-03-01 05:00:00,
2013-02-28 21:02:00,51.3,48.7,30.43,West,273,0.0,0.0,91,0.00,,,0.00,0.0,meteohub,2013-03-01 05:02:00,
2013-02-28 21:04:00,51.1,48.6,30.44,West,273,0.0,0.0,91,0.00,,,0.00,0.0,meteohub,2013-03-01 05:04:00,
2013-02-28 21:08:00,50.9,48.7,30.44,West,273,0.0,0.0,92,0.00,,,0.00,0.0,meteohub,2013-03-01 05:08:00,
2013-02-28 21:14:00,50.7,48.6,30.44,West,273,0.0,0.0,92,0.00,,,0.00,0.0,meteohub,2013-03-01 05:14:00,
2013-02-28 21:17:00,50.7,48.6,30.44,West,273,0.0,0.0,92,0.00,,,0.00,0.0,meteohub,2013-03-01 05:17:00,
2013-02-28 21:22:00,50.5,48.4,30.44,West,273,0.0,0.0,92,0.00,,,0.00,0.0,meteohub,2013-03-01 05:22:00,
2013-02-28 21:27:00,50.4,48.2,30.45,West,273,0.0,0.0,92,0.00,,,0.00,0.0,meteohub,2013-03-01 05:27:00,
2013-02-28 21:34:00,50.2,48.0,30.45,West,273,0.0,0.0,92,0.00,,,0.00,0.0,meteohub,2013-03-01 05:34:00,
2013-02-28 21:40:00,50.2,48.2,30.45,West,273,0.0,0.0,93,0.00,,,0.00,0.0,meteohub,2013-03-01 05:40:00,
2013-02-28 21:46:00,49.8,47.8,30.45,West,273,0.0,0.0,93,0.00,,,0.00,0.0,meteohub,2013-03-01 05:46:00,
2013-02-28 21:52:00,49.6,47.7,30.45,West,273,0.0,0.0,93,0.00,,,0.00,0.0,meteohub,2013-03-01 05:52:00,
2013-02-28 21:57:00,49.6,47.7,30.45,West,273,0.0,0.0,93,0.00,,,0.00,0.0,meteohub,2013-03-01 05:57:00,
2013-02-28 22:02:00,49.5,47.5,30.45,West,273,0.0,0.0,93,0.00,,,0.00,0.0,meteohub,2013-03-01 06:02:00,
2013-02-28 22:07:00,49.5,47.5,30.45,West,273,0.0,0.0,93,0.00,,,0.00,0.0,meteohub,2013-03-01 06:07:00,
2013-02-28 22:13:00,49.3,47.3,30.45,West,273,0.0,0.0,93,0.00,,,0.00,0.0,meteohub,2013-03-01 06:13:00,
2013-02-28 22:19:00,48.9,46.9,30.45,West,273,0.0,0.0,93,0.00,,,0.00,0.0,meteohub,2013-03-01 06:19:00,
2013-02-28 22:25:00,48.9,47.3,30.45,West,273,0.0,0.0,94,0.00,,,0.00,0.0,meteohub,2013-03-01 06:25:00,
2013-02-28 22:31:00,48.7,47.1,30.45,West,273,0.0,0.0,94,0.00,,,0.00,0.0,meteohub,2013-03-01 06:31:00,
2013-02-28 22:37:00,48.7,46.8,30.45,West,273,0.0,0.0,93,0.00,,,0.00,0.0,meteohub,2013-03-01 06:37:00,
2013-02-28 22:42:00,48.6,46.9,30.45,West,273,0.0,0.0,94,0.00,,,0.00,0.0,meteohub,2013-03-01 06:42:00,
2013-02-28 22:47:00,48.4,46.8,30.45,West,273,0.0,0.0,94,0.00,,,0.00,0.0,meteohub,2013-03-01 06:47:00,
2013-02-28 22:52:00,48.2,46.6,30.45,West,273,0.0,0.0,94,0.00,,,0.00,0.0,meteohub,2013-03-01 06:52:00,
2013-02-28 22:58:00,48.0,46.4,30.45,West,273,0.0,0.0,94,0.00,,,0.00,0.0,meteohub,2013-03-01 06:58:00,
2013-02-28 23:04:00,48.0,46.4,30.45,West,273,0.0,0.0,94,0.00,,,0.00,0.0,meteohub,2013-03-01 07:04:00,
2013-02-28 23:10:00,47.8,46.2,30.45,West,273,0.0,0.0,94,0.00,,,0.00,0.0,meteohub,2013-03-01 07:10:00,
2013-02-28 23:16:00,47.8,46.2,30.45,West,273,0.0,0.0,94,0.00,,,0.00,0.0,meteohub,2013-03-01 07:16:00,
2013-02-28 23:22:00,47.7,46.0,30.45,West,273,0.0,0.0,94,0.00,,,0.00,0.0,meteohub,2013-03-01 07:22:00,
2013-02-28 23:27:00,47.5,45.9,30.45,West,273,0.0,0.0,94,0.00,,,0.00,0.0,meteohub,2013-03-01 07:27:00,
2013-02-28 23:32:00,47.3,45.7,30.45,West,273,0.0,0.0,94,0.00,,,0.00,0.0,meteohub,2013-03-01 07:32:00,
2013-02-28 23:37:00,47.1,45.5,30.45,West,273,0.0,0.0,94,0.00,,,0.00,0.0,meteohub,2013-03-01 07:37:00,
2013-02-28 23:43:00,46.9,45.3,30.45,West,273,0.0,0.0,94,0.00,,,0.00,0.0,meteohub,2013-03-01 07:43:00,
2013-02-28 23:49:00,46.8,45.1,30.45,West,273,0.0,0.0,94,0.00,,,0.00,0.0,meteohub,2013-03-01 07:49:00,
2013-02-28 23:55:00,46.8,45.1,30.45,West,273,0.0,0.0,94,0.00,,,0.00,0.0,meteohub,2013-03-01 07:55:00,